Location: ??????
(38.5153°N, 23.0340°E)
Time: 22:46:38
(UTC+00:00)

Daily predictions for brighter satellites

Satellite Brightness Start Highest point End
(mag) Time Altitude Azimuth Time Altitude Azimuth Time Altitude Azimuth
Cosmos 1726 Rocket 4.1 15:30:54 10° SSE 15:35:16 42° E 15:39:36 10° NNE
Cosmos 1900 4.4 15:31:06 10° NNW 15:36:05 61° ENE 15:40:56 10° SE
Cosmos 2151 2.9 15:32:03 10° N 15:36:14 81° E 15:40:23 10° S
SMAP 3.2 15:33:54 10° SSE 15:38:24 51° ENE 15:42:55 10° N
BREEZE-M DEB (TANK) 4.1 15:35:37 10° NW 15:38:34 26° NNE 15:45:36 10° E
IRIDIUM 104 4.3 15:34:45 10° N 15:39:59 72° E 15:45:10 10° S
Meteor 1-20 Rocket 4.1 15:34:36 10° N 15:40:05 77° E 15:45:34 10° SSE
Cosmos 2297 Rocket 2.7 15:36:46 10° NNW 15:42:24 69° WSW 15:48:00 10° SSE
Landsat 7 4.1 15:38:11 10° SE 15:42:34 44° ENE 15:46:59 10° N
Hubble Space Telescope 3.0 15:41:18 10° SSW 15:43:42 16° S 15:46:06 10° SE
GEOS 3 Rocket 3.8 15:39:55 10° NNE 15:45:19 82° NW 15:50:40 10° SW
Cosmos 2084 Rocket 3.4 15:42:14 10° NW 15:46:28 90° E 15:50:39 10° SSE
YAOGAN 1 4.2 15:45:23 10° E 15:47:14 13° ENE 15:49:05 10° NE
Cosmos 1602 Rocket 3.9 15:44:07 10° NNW 15:48:28 70° W 15:52:44 10° S
IRIDIUM 114 4.4 15:43:52 10° N 15:49:07 88° E 15:54:20 10° S
Cosmos 990 Rocket 4.2 15:45:09 10° SSW 15:50:14 72° WNW 15:55:24 10° NNE
COSMOS 2455 4.1 15:47:10 10° SSE 15:51:27 21° ESE 15:55:25 11° ENE
SL-16 R/B 3.5 15:47:23 10° N 15:53:18 47° WNW 15:59:10 10° SW
BREEZE M DEB (TANK) 4.0 15:53:34 10° WNW 15:55:20 16° NNW 15:56:47 10° NNE
Okean 1-7 Rocket 3.6 15:51:34 10° N 15:55:58 88° WSW 16:00:18 10° S
CORIOLIS 4.2 15:54:14 10° SSE 15:59:33 89° WSW 16:04:55 10° NNW
Cosmos 1980 Rocket 2.2 15:55:05 10° SSW 16:00:43 75° ESE 16:06:22 10° NNE
Okean 1 4.2 15:58:51 10° SE 16:01:46 24° E 16:04:05 13° NE
SKYMED 2 4.2 15:59:08 10° NNE 16:03:07 34° E 16:07:04 10° SSE
Aureole 1 Rocket 3.2 15:59:59 10° S 16:04:10 69° ESE 16:09:34 10° NNE
Cosmos 2219 4.0 16:00:28 10° N 16:05:28 30° ENE 16:10:27 10° ESE
ARIANE 5 R/B 2.4 16:04:35 10° SSE 16:09:38 81° ENE 16:14:46 10° N
IRS-1C 4.1 16:05:05 10° SSE 16:10:24 80° ENE 16:15:44 10° NNW
Cosmos 1953 Rocket 3.6 16:08:50 10° N 16:13:13 57° E 16:17:35 10° SSE
Cosmos 2263 Rocket 2.3 16:08:31 10° NNW 16:14:03 51° ENE 16:19:34 10° SE
Cosmos 1867 3.9 16:10:22 10° NW 16:15:47 69° WSW 16:21:09 10° SSE
Helios 1A Rocket 3.9 16:18:12 19° ESE 16:18:12 19° ESE 16:20:22 10° SE
Cosmos 2369 3.8 16:12:39 10° S 16:18:13 57° ESE 16:23:23 12° NNE
Meteor 1-5 Rocket 4.1 16:13:13 10° N 16:18:39 82° E 16:24:12 10° S
Cosmos 1825 Rocket 4.0 16:16:47 10° NNW 16:21:04 63° W 16:25:17 10° S
SAR-Lupe-4 3.8 16:19:02 10° S 16:22:33 70° WSW 16:26:06 10° NNW
Meteor 2-10 4.2 16:18:50 10° N 16:24:12 56° ENE 16:29:42 10° SSE
COSMO-SKYMED 1 2.9 16:22:48 19° NE 16:25:18 38° E 16:29:08 10° SSE
Cosmos 1076 Rocket 3.5 16:23:57 10° N 16:28:17 85° W 16:32:35 10° S
Cosmos 1655 Rocket 4.0 16:22:48 10° N 16:29:03 90° NNW 16:35:17 10° S
SPOT 1/Viking Rocket 3.5 16:28:21 10° SSE 16:33:27 64° ENE 16:38:36 10° N
USA 81 3.9 16:28:32 10° N 16:33:48 70° E 16:39:02 10° S
Cosmos 2227 Rocket 2.8 16:28:30 10° NNW 16:34:04 60° WSW 16:39:36 10° S
Cosmos 2221 4.2 16:36:52 10° SE 16:38:13 17° SE 16:38:13 17° SE
Cosmos 2058 Rocket 3.4 16:39:22 10° SSW 16:43:48 70° W 16:48:16 10° N
Cosmos 2333 Rocket 3.2 16:43:18 10° SSE 16:47:30 26° ESE 16:47:30 26° ESE
Cosmos 1538 Rocket 4.1 16:44:40 10° NNW 16:49:59 78° WSW 16:55:18 10° SSE
Cosmos 2322 Rocket 3.6 16:54:38 10° SSE 16:57:11 21° SE 16:57:11 21° SE
USA 59 Rocket 1.6 16:57:26 10° S 16:59:19 19° SSE 16:59:19 19° SSE
Resurs 1-3 3.4 16:59:33 10° SSE 17:03:51 87° ENE 17:08:09 10° NNW
Cosmos-2242 4.3 17:03:07 10° SSW 17:07:04 38° WNW 17:11:04 10° N
USA 308 3.5 17:06:38 10° SW 17:08:32 36° SSW 17:08:32 36° SSW
Spot 4 Rocket 4.0 17:05:15 10° SSE 17:10:21 82° WSW 17:15:29 10° NNW
SJ-7 4.3 17:06:57 10° S 17:14:37 - NNW 17:10:22 69° SSW
Nadezhda 2 Rocket 4.4 17:06:41 10° N 17:12:48 84° W 17:18:54 10° S
Cosmos 1553 Rocket 4.2 17:06:47 10° SSW 17:12:53 70° W 17:19:09 10° N
S3M 4.0 17:07:16 10° SSE 17:13:26 55° E 17:14:31 49° ENE
DMSP B5D1-3 4.3 17:15:02 67° ENE 17:15:24 71° ESE 17:20:25 10° S
IRAS Rocket 4.1 17:11:02 10° SSE 17:16:31 87° ENE 17:22:01 10° NNW
YAOGAN 1 3.2 17:18:26 10° S 17:22:35 54° W 17:26:46 10° NNW
Cosmos 2082 3.7 17:16:59 10° NNW 17:22:43 82° WSW 17:28:25 10° SSE
Hubble Space Telescope 2.9 17:20:27 10° SW 17:22:42 17° S 17:22:42 17° S
Meteor 2-6 Rocket 4.4 17:20:12 10° SSW 17:25:50 74° W 17:29:21 25° N
SL-16 R/B 2.0 17:23:32 10° SSW 17:29:11 84° ESE 17:29:26 81° ENE
Cosmos 923 Rocket 4.0 17:26:17 10° NNW 17:31:28 77° WSW 17:32:38 54° S
Cosmos 1745 Rocket 3.8 17:28:37 10° N 17:36:52 44° SSE 17:40:54 10° S
COSMOS 2455 3.3 17:30:55 10° SW 17:36:51 58° WNW 17:38:36 43° N
BREEZE-M DEB (TANK) 4.0 17:27:51 10° WNW 17:44:08 57° NNE 17:44:17 57° NNE
Cosmos 2278 4.1 17:49:19 10° SSW 17:54:09 60° WSW 17:54:09 60° WSW
Cosmos 2360 Rocket 4.1 18:11:15 10° SSW 18:13:06 22° SSW 18:13:06 22° SSW
Cosmos 2333 Rocket 4.0 18:26:35 10° SW 18:29:34 28° WSW 18:29:34 28° WSW
Cosmos 2322 Rocket 4.5 18:37:31 10° SW 18:39:03 18° SW 18:39:03 18° SW
